This demonstration page uses our WeatherBlox Daily Observations layout. Learn more.

Left ArrowRight Arrow

40.92945, -100.16068

Hourly Observations for April 29, 2020

Temp ( °F °C ) Dew Point ( °F °C ) Humidity (%) Winds ( mph kmh ) Pressure ( in mb ) Visibility ( mi km ) Precip ( " mm )
12:15 am 00:15 Clear 45 7.4 37 2.5 71 71 WNW 10 17 30.07 1018 10 16 0.00 0.00
12:35 am 00:35 Clear 47 8.4 36 2 64 64 WNW 15 24 30.06 1018 10 16 0.00 0.00
12:55 am 00:55 Clear 47 8.6 34 0.9 59 59 WNW 14 22 30.06 1018 10 16 0.00 0.00
1:15 am 01:15 Clear 46 7.8 32 0.2 59 59 WNW 15 24 30.07 1018 10 16 0.00 0.00
1:35 am 01:35 Clear 45 7 32 0 61 61 WNW 13 20 30.08 1019 10 16 0.00 0.00
1:55 am 01:55 Clear 44 6.7 32 -0.1 62 62 WNW 13 20 30.08 1019 10 16 0.00 0.00
2:15 am 02:15 Clear 45 7.4 31 -0.6 57 57 WNW 13 20 30.08 1018 10 16 0.00 0.00
2:35 am 02:35 Clear 45 7.3 31 -0.8 57 57 WNW 12 19 30.08 1018 10 16 0.00 0.00
2:55 am 02:55 Clear 45 7.1 30 -1 57 57 WNW 15 24 30.07 1018 10 16 0.00 0.00
3:15 am 03:15 Clear 46 7.6 31 -0.8 56 56 WNW 16 26 30.06 1018 10 16 0.00 0.00
3:35 am 03:35 Clear 46 8 31 -0.8 54 54 WNW 16 26 30.07 1018 10 16 0.00 0.00
3:55 am 03:55 Clear 48 8.8 31 -0.4 53 53 NW 15 24 30.06 1018 10 16 0.00 0.00
4:15 am 04:15 Clear 49 9.2 32 0 53 53 NW 21 33 30.06 1018 10 16 0.00 0.00
4:35 am 04:35 Clear 49 9.7 32 0.2 52 52 NNW 24 39 30.06 1018 10 16 0.00 0.00
4:55 am 04:55 Clear 49 9.7 37 2.5 61 61 NNW 31 50 30.07 1018 10 16 0.00 0.00
5:15 am 05:15 Clear 48 9 37 3 66 66 NNW 18 30 30.09 1019 10 16 0.00 0.00
5:35 am 05:35 Clear 48 8.7 38 3.4 70 70 NW 21 33 30.10 1019 10 16 0.00 0.00
5:55 am 05:55 Clear 47 8.2 38 3.6 73 73 NW 18 30 30.11 1020 10 16 0.00 0.00
6:15 am 06:15 Clear 46 7.8 38 3.5 74 74 NW 17 28 30.12 1020 10 16 0.00 0.00
6:35 am 06:35 Clear 47 8.2 39 3.7 74 74 NNW 17 28 30.14 1021 10 16 0.00 0.00
6:55 am 06:55 Sunny 47 8.1 39 3.8 75 75 NNW 22 35 30.14 1021 10 16 0.00 0.00
7:15 am 07:15 Sunny 47 8.2 39 4 75 75 NNW 18 30 30.15 1021 10 16 0.00 0.00
7:35 am 07:35 Sunny 47 8.2 39 4.1 76 76 NW 15 24 30.16 1021 10 16 0.00 0.00
7:55 am 07:55 Sunny 48 8.7 40 4.4 75 75 NNW 20 31 30.16 1021 10 16 0.00 0.00
8:15 am 08:15 Partly Cloudy 48 8.9 40 4.3 73 73 NNW 22 35 30.17 1022 10 16 0.00 0.00
8:35 am 08:35 Mostly Cloudy 49 9.3 40 4.7 73 73 NNW 21 33 30.18 1022 10 16 0.00 0.00
8:55 am 08:55 Mostly Cloudy 49 9.6 40 4.5 71 71 NNW 23 37 30.17 1022 10 16 0.00 0.00
9:15 am 09:15 Partly Cloudy 51 10.4 41 4.8 69 69 N 28 44 30.18 1022 10 16 0.00 0.00
9:35 am 09:35 Sunny 52 11.2 41 4.9 65 65 N 23 37 30.17 1022 10 16 0.00 0.00
9:55 am 09:55 Partly Cloudy 53 11.6 41 5 64 64 N 21 33 30.17 1022 10 16 0.00 0.00
10:15 am 10:15 Partly Cloudy 54 12.2 41 5.1 62 62 N 23 37 30.17 1022 10 16 0.00 0.00
10:35 am 10:35 Partly Cloudy 56 13.1 42 5.3 59 59 N 22 35 30.15 1021 10 16 0.00 0.00
10:55 am 10:55 Sunny 57 13.9 42 5.4 57 57 N 21 33 30.15 1021 10 16 0.00 0.00
11:15 am 11:15 Partly Cloudy 57 14.1 41 5 55 55 N 23 37 30.14 1021 10 16 0.00 0.00
11:35 am 11:35 Partly Cloudy 58 14.7 42 5.3 54 54 NNW 17 28 30.14 1021 10 16 0.00 0.00
11:55 am 11:55 Partly Cloudy 59 15.2 41 4.8 50 50 NNW 20 31 30.14 1021 10 16 0.00 0.00
12:15 pm 12:15 Sunny 61 16 41 4.9 48 48 N 18 30 30.14 1021 10 16 0.00 0.00
12:35 pm 12:35 Sunny 62 16.5 42 5.3 48 48 N 15 24 30.13 1020 10 16 0.00 0.00
12:55 pm 12:55 Sunny 62 16.6 41 4.9 46 46 N 18 30 30.12 1020 10 16 0.00 0.00
1:15 pm 13:15 Sunny 63 17.3 40 4.5 43 43 N 18 30 30.12 1020 10 16 0.00 0.00
1:35 pm 13:35 Sunny 64 18 41 4.8 42 42 NNW 16 26 30.11 1020 10 16 0.00 0.00
1:55 pm 13:55 Sunny 65 18.4 41 4.8 41 41 NNW 17 28 30.09 1019 10 16 0.00 0.00
2:15 pm 14:15 Sunny 65 18.4 41 4.9 41 41 N 22 35 30.09 1019 10 16 0.00 0.00
2:35 pm 14:35 Sunny 66 19 39 3.8 37 37 NNW 21 33 30.08 1019 10 16 0.00 0.00
2:55 pm 14:55 Sunny 66 18.8 41 4.8 40 40 N 21 33 30.07 1018 10 16 0.00 0.00
3:15 pm 15:15 Sunny 67 19.2 40 4.3 38 38 N 17 28 30.07 1018 10 16 0.00 0.00
3:35 pm 15:35 Sunny 66 18.9 39 4.1 38 38 N 22 35 30.07 1018 10 16 0.00 0.00
3:55 pm 15:55 Sunny 66 18.9 39 4.1 38 38 NNW 18 30 30.06 1018 10 16 0.00 0.00
4:15 pm 16:15 Sunny 67 19.2 41 5.1 40 40 N 23 37 30.06 1018 10 16 0.00 0.00
4:35 pm 16:35 Sunny 66 19.1 40 4.2 38 38 N 18 30 30.06 1018 10 16 0.00 0.00
4:55 pm 16:55 Sunny 66 18.7 39 4 38 38 N 17 28 30.06 1018 10 16 0.00 0.00
5:15 pm 17:15 Sunny 66 18.8 40 4.6 39 39 N 15 24 30.06 1018 10 16 0.00 0.00
5:35 pm 17:35 Sunny 65 18.5 40 4.3 39 39 N 14 22 30.06 1018 10 16 0.00 0.00
5:55 pm 17:55 Sunny 65 18.2 40 4.4 40 40 N 15 24 30.07 1018 10 16 0.00 0.00
6:15 pm 18:15 Sunny 65 18.4 40 4.3 39 39 NNE 15 24 30.07 1018 10 16 0.00 0.00
6:35 pm 18:35 Sunny 64 18 40 4.7 42 42 NNE 14 22 30.06 1018 10 16 0.00 0.00
6:55 pm 18:55 Sunny 64 17.5 40 4.4 42 42 NNE 10 17 30.07 1018 10 16 0.00 0.00
7:15 pm 19:15 Sunny 63 17.2 40 4.4 43 43 N 8 13 30.07 1018 10 16 0.00 0.00
7:35 pm 19:35 Sunny 62 16.6 39 4 43 43 NNE 12 19 30.07 1018 10 16 0.00 0.00
7:55 pm 19:55 Sunny 60 15.7 41 4.9 49 49 NNE 9 15 30.08 1019 10 16 0.00 0.00
8:15 pm 20:15 Sunny 58 14.2 40 4.5 52 52 NE 7 11 30.09 1019 10 16 0.00 0.00
8:35 pm 20:35 Clear 54 12.4 41 5 61 61 NE 8 13 30.12 1020 10 16 0.00 0.00
8:55 pm 20:55 Clear 51 10.7 40 4.4 65 65 NE 8 13 30.12 1020 10 16 0.00 0.00
9:15 pm 21:15 Clear 50 9.9 40 4.7 70 70 ENE 8 13 30.14 1021 10 16 0.00 0.00
9:35 pm 21:35 Clear 49 9.2 40 4.5 73 73 E 6 9 30.14 1021 10 16 0.00 0.00
9:55 pm 21:55 Clear 47 8.4 39 4 74 74 E 3 6 30.16 1021 10 16 0.00 0.00
10:15 pm 22:15 Clear 49 9.7 39 4.1 68 68 Calm 30.15 1021 10 16 0.00 0.00
10:35 pm 22:35 Clear 50 9.8 39 4 67 67 Calm 30.15 1021 10 16 0.00 0.00
10:55 pm 22:55 Clear 49 9.2 39 3.9 70 70 Calm 30.16 1021 10 16 0.00 0.00
11:15 pm 23:15 Clear 47 8.4 39 3.7 73 73 Calm 30.17 1022 10 16 0.00 0.00
11:35 pm 23:35 Clear 46 7.5 38 3.2 74 74 Calm 30.16 1021 10 16 0.00 0.00
11:55 pm 23:55 Clear 42 5.8 35 1.7 75 75 Calm 30.18 1022 10 16 0.00 0.00

Powered by AerisWeather